Flag for Estonia Weather past 2 weeks in Tartu, Estonia

Now
68 °F

Mild.


Feels Like: 68 °F
Forecast: 55 / 74 °F
Wind: 8 mph from Northeast

Location: Tartu/Ulenurme

Current Time: Jul 5, 2015 at 9:59:04 PM

Latest Report: Jul 5, 2015 at 8:50 PM


Visibility: N/A

Pressure: 30.01 "Hg

Humidity: 56%

Dew point: 52 °F

Location of TartuLocation

Historic Weather in Tartu — Graph

°F

Tartu temperature yesterday

Maximum temperature yesterday: 81 °F (at 1:50 PM)
Minimum temperature yesterday: 61 °F (at 2:50 AM)
Average temperature yesterday: 72 °F

Past Weeks' High & Low Weather Summary

 TemperatureHumidityPressure
High81 °F (Jul 3, 1:50 PM)94% (Jun 22, 1:50 AM)30.36 "Hg (Jun 22, 1:50 AM)
Low43 °F (Jun 27, 3:50 AM)33% (Jul 2, 2:50 PM)29.71 "Hg (Jun 24, 3:50 AM)
Average62 °F68%29.99 "Hg
* Reported Jun 20 7:50 PM — Jul 5 7:50 PM, Tartu, Weather by CustomWeather, © 2015

Note: Actual official high and low records may vary slightly from our data, if they occured in-between our weather recording intervals... More about our weather records

Advertising

Tartu weather history for previous 24 hours

 ConditionsComfort  
Time TempWeatherWind HumidityBarometerVisibility
7:50 PM
Sun, Jul 5
72 °FMild.6 mph53%30.01 "HgN/A
6:50 PM73 °FSunny.5 mph50%30.01 "Hg10 mi
5:50 PM75 °FPassing clouds.10 mph41%30.01 "HgN/A
4:50 PM75 °FPassing clouds.8 mph41%30.04 "HgN/A
3:50 PM73 °FPassing clouds.10 mph47%30.04 "HgN/A
2:50 PM73 °FPassing clouds.7 mph47%30.04 "HgN/A
1:50 PM72 °FPassing clouds.7 mph47%30.04 "HgN/A
12:50 PM70 °FPassing clouds.8 mph57%30.04 "HgN/A
11:50 AM72 °FPassing clouds.10 mph53%30.07 "HgN/A
10:50 AM70 °FPassing clouds.9 mph60%30.04 "HgN/A
9:50 AM68 °FPassing clouds.9 mph64%30.04 "HgN/A
8:50 AM66 °FPassing clouds.7 mph68%30.04 "HgN/A
7:50 AM63 °FSunny.6 mph77%30.04 "Hg10 mi
6:50 AM61 °FCool.8 mph77%30.01 "HgN/A
5:50 AM61 °FCool.10 mph83%30.01 "HgN/A
4:50 AM61 °FCool.9 mph83%30.01 "HgN/A
3:50 AM63 °FMild.10 mph83%30.01 "HgN/A
2:50 AM64 °FMild.9 mph83%29.98 "HgN/A
1:50 AM64 °FMild.9 mph83%30.01 "HgN/A
12:50 AM66 °FMild.12 mph78%30.01 "HgN/A
11:50 PM
Sat, Jul 4
68 °FMild.12 mph73%30.01 "HgN/A
10:50 PM68 °FMild.10 mph69%30.01 "HgN/A
9:50 PM72 °FMild.9 mph61%30.01 "HgN/A
Weather by CustomWeather, © 2015

See weather overviewHow to use our weather pages